Regional Weather Roundup
Issued by NWS

Home | Current Version | Previous Version | Graphics & Text | Print | Product List | Glossary On
Versions: 1 2 3 4 5 6 7 8 9 10 11 12 13 14 15 16 17 18 19 20 21 22 23 24 25 26 27 28 29 30 31 32 33 34 35 36 37 38 39 40 41 42 43 44 45 46 47 48 49 50
000
ASUS43 KDTX 010110
RWRMI
MICHIGAN HOURLY REGIONAL WEATHER ROUNDUP
NATIONAL WEATHER SERVICE DETROIT/PONTIAC MI
900 PM EDT THU JUL 31 2014

NOTE: "FAIR" INDICATES FEW OR NO CLOUDS BELOW 12,000 FEET WITH NO
SIGNIFICANT WEATHER AND/OR OBSTRUCTION TO VISIBILITY.

MIZ047>049-052>055-059>063-066>070-074>076-081>083-010200-
SOUTHEAST LOWER MICHIGAN

CITY           SKY/WX    TMP DP  RH WIND       PRES   REMARKS
ADRIAN         CLEAR     73  58  59 W3        30.05R
ALMA           CLEAR     69  60  72 SW5       30.02R
ANN ARBOR      CLEAR     67  58  72 SW6       30.03R
BAD AXE        PTCLDY    66  60  80 CALM      30.00S
CARO           PTCLDY    68  63  85 SW3       30.00S
DETROIT CITY   CLEAR     78  57  48 W5        30.02R
DETROIT        PTCLDY    75  59  57 SW8       30.03R
FLINT          CLEAR     70  58  65 CALM      30.02R
GROSSE ILE     CLEAR     75  59  57 CALM      30.01S
HILLSDALE      CLEAR     69  60  75 CALM      30.06R
HOWELL         CLEAR     70  57  65 SW3       30.03R

CITY           SKY/WX    TMP DP  RH WIND       PRES   REMARKS
JACKSON        CLEAR     71  59  65 SW3       30.04R
LAMBERTVILLE   CLEAR     68  64  88 CALM      30.05R FOG
LANSING        CLEAR     72  58  61 W5        30.03R
LAPEER         FAIR      62  60  93 CALM      30.03R
MASON          CLEAR     72  59  64 CALM      30.03S
MONROE         PTCLDY    72  61  68 CALM      30.02S
MT. CLEMENS    PTCLDY    69  59  69 NE7       30.01R
PONTIAC        PTCLDY    72  58  61 SW3       30.02R
PORT HOPE        N/A     66  57  72 S5        29.98S
PORT HURON     CLOUDY    61  61 100 CALM      30.03F
TRI CITIES     CLEAR     71  60  68 S5        30.01R
TROY           CLEAR     75  58  55 SW3       30.03S
SAGINAW HB     PTCLDY    68  61  77 S3        30.00S
$$
MIZ043>046-050>051-056>058-064>065-071>073-077>080-010200-
SOUTHWEST LOWER MICHIGAN

CITY           SKY/WX    TMP DP  RH WIND       PRES   REMARKS
BATTLE CREEK   CLEAR     72  60  66 S5        30.04F
BENTON HARBOR  PTCLDY    74  57  55 CALM      30.02S
BIG RAPIDS     MOCLDY    69  59  71 W3        30.00S
COLDWATER      CLEAR     71  61  70 CALM      30.04S
FREMONT        MOCLDY    69  60  73 CALM      30.00S
HOLLAND        CLEAR     73  60  63 S3        30.01F
GRAND RAPIDS   PTCLDY    73  61  65 W5        30.02S
IONIA          FAIR      69  59  69 W5        30.02R
KALAMAZOO      CLEAR     71  58  63 SW5       30.03F
LUDINGTON      PTCLDY    69  61  74 S6        29.99F
MARSHALL       CLEAR     67  60  77 CALM      30.04S
MOUNT PLEASANT CLEAR     71  59  66 SW5       30.00R
MUSKEGON       MOCLDY    71  57  61 S5        30.00F
SOUTH HAVEN    PTCLDY    71  65  81 CALM      30.01F
$$
MIZ016>042-010200-
NORTHERN LOWER MICHIGAN

CITY           SKY/WX    TMP DP  RH WIND       PRES   REMARKS
ALPENA         CLOUDY    67  55  65 NE6       29.98R
BEAVER ISLAND  MOCLDY    63  60  91 W5        29.98S
BELLAIRE       CLEAR     64  57  78 CALM      29.96S
CADILLAC       CLEAR     67  54  63 SW3       30.00S
CHARLEVOIX     MOCLDY    69  56  63 CALM      30.00R
FRANKFORT      CLEAR     66  57  74 SW3       29.98F
GAYLORD        CLEAR     66  51  58 CALM      29.99S
GRAYLING       CLEAR     64  57  78 CALM      30.00R
HARBOR SPRINGS PTCLDY    66  59  77 CALM      29.97S
HOUGHTON LAKE  CLEAR     69  55  60 W3        30.00R
MANISTEE       CLEAR     70  59  68 CALM      29.99F
OSCODA         MOCLDY    70  56  62 S3        29.97R
PELLSTON       MOCLDY    66  56  70 W5        29.97S
ROGERS CITY    MOCLDY    64  60  88 CALM      29.99R
TRAVERSE CITY  PTCLDY    72  50  45 SW3       29.96S
$$
MIZ007>008-015-010200-
EASTERN UPPER MICHIGAN

CITY           SKY/WX    TMP DP  RH WIND       PRES   REMARKS
KINROSS        CLEAR     61  55  82 CALM      29.97S
MACKINAC ISLAN PTCLDY    63  58  84 CALM      29.97S
NEWBERRY       PTCLDY    65  48  54 W10       29.97R
S. S. MARIE    PTCLDY    61  49  64 NW5       29.97R
MUNISING         N/A     65  55  70 CALM      29.96R
$$
MIZ004>006-011>014-085-010200-
CENTRAL UPPER MICHIGAN

CITY           SKY/WX    TMP DP  RH WIND       PRES   REMARKS
MANISTIQUE     PTCLDY    61  59  92 CALM      29.97R
ESCANABA       CLEAR     70  55  60 NE5       29.96R
MENOMINEE      CLEAR     72  57  60 CALM      29.94R
SAWYER-GWINN   CLEAR     66  50  55 CALM      29.98S
$$
MIZ001>003-009>011-084-010200-
WESTERN UPPER MICHIGAN

CITY           SKY/WX    TMP DP  RH WIND       PRES   REMARKS
IRON MOUNTAIN  CLEAR     71  51  49 NW3       29.97R
HOUGHTON       CLEAR     66  52  60 W7        29.95S
COPPER HARBOR    N/A     68  52  56 CALM      29.93S
$$

ABBREVIATIONS USED IN REMARKS
   TC - TEMPERATURE IN CELSIUS
  WCI - WIND CHILL INDEX
   HX - HEAT INDEX
  VSB - VISIBILITY



USA.gov is the U.S. government's official web portal to all federal, state and local government web resources and services.